Weather Roundup
Issued by NWS

Home | Current Version | Previous Version | Graphics & Text | Print | Product List | Glossary Off
Versions: 1 2 3 4 5 6 7 8 9 10 11 12 13 14 15 16 17 18 19 20 21 22 23 24 25 26 27 28 29 30 31 32 33 34 35 36 37 38 39 40 41 42 43 44 45 46 47 48 49 50

000
NZUS93 KARX 281210
HRRWXR

CURRENT HOURLY OBSERVATIONS ACROSS
MUCH OF THE UPPER MISSISSIPPI VALLEY
NATIONAL WEATHER SERVICE LA CROSSE WI
600 AM CST SAT FEB 28 2015


...SOUTHEAST MINNESOTA...


CITY           SKY/WX    TMP DP  RH WIND       PRES   REMARKS
ROCHESTER      PTCLDY   -14 -19  79 S10       30.52R WCI -34
ROCHESTER/MAYO FAIR      -8 -13  77 SE5       30.54R WCI -19
WINONA         PTCLDY    -8 -13  77 CALM      30.63S
AUSTIN         PTCLDY   -11 -17  77 CALM      30.53R
ALBERT LEA     PTCLDY    -8 -11  84 S5        30.51S WCI -19
DODGE CENTER   PTCLDY    -9 -13  84 S7        30.50R WCI -24
PRESTON        PTCLDY   -12 -16  80 S8        30.54R WCI -28
OWATONNA       PTCLDY    -2  -9  71 SE14      30.51R WCI -21
FARIBAULT      PTCLDY    -6  -9  84 S5        30.52S WCI -17
$$

...ELSEWHERE IN MINNESOTA...


CITY           SKY/WX    TMP DP  RH WIND       PRES   REMARKS
MINNEAPOLIS    CLEAR     -2  -7  79 SE7       30.52F WCI -15
INTNL FALLS    PTCLDY    -1  -8  72 CALM      30.30F
DULUTH         PTCLDY    -1  -6  79 SW7       30.38F WCI -14
RED WING       PTCLDY    -6 -11  77 SE5       30.56S WCI -17
REDWOOD FALLS  PTCLDY    -7 -11  83 SE7       30.45S WCI -21
MANKATO        FAIR      -6 -15  65 S8        30.49S WCI -21
FAIRMONT       PTCLDY    -6  -9  84 S9        30.46S WCI -22
$$

...SOUTHWEST WISCONSIN...


CITY           SKY/WX    TMP DP  RH WIND       PRES   REMARKS
LA CROSSE      PTCLDY    -8 -13  78 S5        30.64R WCI -19
PRAIRIE DU CHI PTCLDY   -17 -24  70 CALM      30.67R
BOSCOBEL       PTCLDY   -19 -25  73 CALM      30.67R
LONE ROCK      PTCLDY   -17 -22  78 CALM      30.66R
PLATTEVILLE    MOCLDY    -8 -12  82 SE6       30.62R WCI -21
FORT MC COY    PTCLDY   -17 -22  76 CALM      30.62R
CAMP DOUGLAS   PTCLDY   -12 -15  86 CALM      30.60R
VIROQUA        FAIR      -6  -9  86 SW6       30.56R WCI -18
WIS DELLS      PTCLDY    -5 -10  78 CALM      30.61R
$$

...ELSEWHERE IN WISCONSIN...


CITY           SKY/WX    TMP DP  RH WIND       PRES   REMARKS
MILWAUKEE      PTCLDY    -2 -11  65 SW5       30.67R WCI -12
MADISON        PTCLDY    -8 -14  74 CALM      30.63R
GREEN BAY      CLEAR      1  -6  72 SW7       30.62R WCI -12
EAU CLAIRE     MOCLDY    -6 -12  75 S3        30.56R
BLACK RVR FLS  FAIR     -20 -28  68 CALM      30.61R
MEDFORD        MOCLDY    -9 -13  83 SW3       30.49S
WAUSAU         PTCLDY    -7  -9  91 S3        30.53R
WIS RAPIDS     PTCLDY   -10 -16  74 SW3       30.60R
MARSHFIELD     PTCLDY    -7 -12  79 SW7       30.54R WCI -21
RICE LAKE      MOCLDY    -8 -12  80 CALM      30.53S
$$

...NORTHEAST IOWA...


CITY           SKY/WX    TMP DP  RH WIND       PRES   REMARKS
DECORAH        PTCLDY    -8 -13  77 S6        30.57S WCI -21
MASON CITY     MOCLDY   -17 -22  78 S6        30.55R WCI -32
CHARLES CITY   PTCLDY    -8 -13  77 S8        30.57R WCI -23
OELWEIN        MOCLDY    -9 -15  77 SE8       30.59S WCI -26
$$

...ELSEWHERE IN IOWA...


CITY           SKY/WX    TMP DP  RH WIND       PRES   REMARKS
DES MOINES     CLEAR      2  -5  72 SE5       30.56S WCI  -8
IOWA CITY      MOCLDY   -10 -16  74 CALM      30.66R
FORT DODGE     MOCLDY   -11 -17  77 CALM      30.52S
$$

...NORTHERN ILLINOIS...


CITY           SKY/WX    TMP DP  RH WIND       PRES   REMARKS
CHICAGO-OHARE  FAIR      -7 -11  83 S3        30.69R
CHICAGO-MIDWAY PTCLDY     2  -5  72 CALM      30.71R
MOLINE         MOCLDY   -14 -20  74 E3        30.68R
ROCKFORD       PTCLDY   -15 -22  70 CALM      30.69R
PEORIA         CLOUDY     5  -1  76 E5        30.68S WCI  -4
$$

NOTE: "FAIR" INDICATES FEW OR NO CLOUDS BELOW 12,000 FEET WITH NO
SIGNIFICANT WEATHER AND/OR OBSTRUCTIONS TO VISIBILITY. WIND
SPEEDS ARE IN MILES-PER-HOUR.



USA.gov is the U.S. government's official web portal to all federal, state and local government web resources and services.